Change the Weather History Date:

Tuesday, September 24, 2013

  Actual Average Record
Temperature  
Mean Temperature 56 °F 55 °F  
Max Temperature 70 °F 65 °F 88 °F (1937)
Min Temperature 42 °F 44 °F 28 °F (1976)
Degree Days  
Heating Degree Days 9 11  
Month to date heating degree days 141 155  
Since 1 July heating degree days 197 221  
Cooling Degree Days 0 0  
Month to date cooling degree days 56 29  
Year to date cooling degree days 506 404  
Growing Degree Days 6 (Base 50)    
Moisture  
Dew Point 47 °F    
Average Humidity 74    
Maximum Humidity 100    
Minimum Humidity 47    
Precipitation  
Precipitation 0.00 in 0.14 in 2.31 in (1984)
Month to date precipitation 2.30 3.13  
Year to date precipitation 29.93 25.34  
Snow  
Snow 0.00 in 0.00 in T in (1985)
Month to date snowfall 0.0 0.0  
Since 1 July snowfall 0.0 0.0  
Since 1 September snowfall 0.0 0.0  
Snow Depth 0.00 in    
Sea Level Pressure  
Sea Level Pressure 30.06 in    
Wind  
Wind Speed 4 mph (ESE)    
Max Wind Speed 9 mph    
Max Gust Speed 12 mph    
Visibility 5 miles    
Events Fog    
T = Trace of Precipitation, MM = Missing Value Source: NWS Daily Summary

Daily Weather History Graph

Daily Weather History Graph

Search for Another Location

Airport or City:

Trip Planner

Search our weather history database for the weather conditions in past years. The results will help you decide how hot, cold, wet, or windy it might be!

Date:

Astronomy

Sep. 24, 2013 Rise Set
Actual Time 6:48 AM CDT 6:51 PM CDT
Civil Twilight 6:19 AM CDT 7:20 PM CDT
Nautical Twilight 5:44 AM CDT 7:55 PM CDT
Astronomical Twilight 5:09 AM CDT 8:30 PM CDT
Moon 9:56 PM CDT (9/24) 12:16 PM CDT (9/24)
Length of Visible Light 13h 01m
Length of Day
12h 03m
Waning Gibbous, 73% of the Moon is Illuminated
Sep 24
Waning Gibbous
Sep 26
Last Quarter
Oct 4
New
Oct 11
First Quarter
Oct 18
Full

Hourly Weather History & Observations

Time (CDT) Temp. Windchill Dew Point Humidity Pressure Visibility Wind Dir Wind Speed Gust Speed Precip Events Conditions
12:54 AM 46.0 °F 44.8 °F 44.1 °F 93% 30.08 in 7.0 mi East 3.5 mph - N/A   Clear
1:54 AM 45.0 °F 42.6 °F 44.1 °F 97% 30.07 in 7.0 mi ESE 4.6 mph - N/A   Clear
2:54 AM 44.1 °F - 43.0 °F 96% 30.07 in 4.0 mi Calm Calm - N/A   Clear
3:45 AM 44.6 °F - 42.8 °F 93% 30.06 in 2.0 mi Calm Calm - N/A   Clear
3:54 AM 44.1 °F - 43.0 °F 96% 30.09 in 3.0 mi Calm Calm - N/A   Clear
4:10 AM 44.6 °F - 42.8 °F 93% 30.06 in 1.8 mi Calm Calm - N/A   Clear
4:20 AM 44.6 °F - 42.8 °F 93% 30.06 in 3.0 mi Calm Calm - N/A   Clear
4:54 AM 42.1 °F 39.2 °F 42.1 °F 100% 30.09 in 4.0 mi ESE 4.6 mph - N/A   Clear
5:40 AM 44.6 °F 41.4 °F 42.8 °F 93% 30.07 in 3.0 mi ESE 5.8 mph - N/A   Scattered Clouds
5:43 AM 44.6 °F 41.4 °F 42.8 °F 93% 30.07 in 2.5 mi ESE 5.8 mph - N/A   Mostly Cloudy
5:49 AM 42.8 °F 38.6 °F 42.8 °F 100% 30.07 in 0.8 mi ESE 6.9 mph - N/A   Mostly Cloudy
5:54 AM 43.0 °F 39.5 °F 43.0 °F 100% 30.09 in 0.5 mi ESE 5.8 mph - N/A Fog Fog
6:54 AM 44.1 °F 40.1 °F 43.0 °F 96% 30.10 in 0.2 mi ESE 6.9 mph - N/A Fog Fog
7:54 AM 45.0 °F 41.8 °F 44.1 °F 97% 30.09 in 0.5 mi East 5.8 mph - N/A Fog Fog
8:10 AM 44.6 °F 41.4 °F 44.6 °F 100% 30.06 in 1.5 mi ESE 5.8 mph - N/A   Overcast
8:25 AM 46.4 °F - 44.6 °F 93% 30.07 in 2.0 mi Calm Calm - N/A   Overcast
8:54 AM 46.9 °F - 46.9 °F 100% 30.10 in 1.2 mi ESE 4.6 mph - N/A   Overcast
9:07 AM 48.2 °F - 46.4 °F 93% 30.07 in 0.8 mi ESE 4.6 mph - N/A   Overcast
9:44 AM 51.8 °F - 50.0 °F 94% 30.07 in 1.5 mi East 4.6 mph - N/A   Overcast
9:54 AM 51.1 °F - 51.1 °F 100% 30.09 in 2.5 mi ESE 5.8 mph - N/A   Overcast
10:04 AM 53.6 °F - 51.8 °F 94% 30.07 in 3.0 mi ESE 4.6 mph - N/A   Overcast
10:20 AM 55.4 °F - 51.8 °F 88% 30.07 in 6.0 mi SSE 6.9 mph - N/A   Overcast
10:47 AM 55.4 °F - 50.0 °F 82% 30.06 in 8.0 mi SE 5.8 mph - N/A   Scattered Clouds
10:54 AM 55.9 °F - 50.0 °F 80% 30.09 in 9.0 mi South 3.5 mph - N/A   Partly Cloudy
11:54 AM 61.0 °F - 50.0 °F 67% 30.07 in 10.0 mi SE 3.5 mph - N/A   Clear
12:54 PM 64.9 °F - 51.1 °F 61% 30.05 in 10.0 mi Calm Calm - N/A   Clear
1:54 PM 66.9 °F - 48.0 °F 51% 30.03 in 10.0 mi South 4.6 mph - N/A   Clear
2:54 PM 68.0 °F - 48.0 °F 49% 30.02 in 10.0 mi Variable 3.5 mph - N/A   Clear
3:54 PM 69.1 °F - 48.9 °F 49% 30.00 in 10.0 mi SSE 6.9 mph - N/A   Clear
4:54 PM 69.1 °F - 48.9 °F 49% 30.00 in 10.0 mi East 6.9 mph - N/A   Clear
5:54 PM 68.0 °F - 48.9 °F 50% 30.00 in 10.0 mi SE 8.1 mph - N/A   Clear
6:54 PM 63.0 °F - 50.0 °F 63% 30.00 in 10.0 mi East 4.6 mph - N/A   Clear
7:54 PM 57.0 °F - 52.0 °F 83% 30.01 in 10.0 mi East 4.6 mph - N/A   Clear
8:54 PM 55.0 °F - 51.1 °F 86% 30.01 in 10.0 mi East 6.9 mph - N/A   Clear
9:54 PM 54.0 °F - 51.1 °F 90% 30.02 in 9.0 mi East 3.5 mph - N/A   Clear
10:54 PM 52.0 °F - 50.0 °F 93% 30.03 in 7.0 mi East 3.5 mph - N/A   Clear
11:54 PM 51.1 °F - 48.9 °F 92% 30.02 in 6.0 mi Calm Calm - N/A   Clear